Temperature
13 13 12 12 12 12 12 12 12 12 13 13 13 13 13 13 12 12 11 11 12 12 11 11 12 12 12 12 12 12 12 12 12 12 12 12 12 12 12 12 12 12 12
12 12 12 12 12 12 12 12 12 12 12 12 12 12 12 12 12 11 11 11 11 11 11 11 12 12 12 12 11 11 11 11 11 11 11 11 11 12 12 12 12 12 12
12 12 12 12 12 12 12 12 12 12 12 12 11 11 11 11 11 11 10 10 10 10 11 11 11 11 12 11 11 11 11 10 10 10 10 11 10 10 11 11 11 11 11
11 11 11 12 12 12 12 12 11 11 10 10 10 10 10 10 10 10 10 10 10 10 11 11 11 11 11 11 11 11 10 10 10 10 10 10 10 10 10 10 11 11 11
12 12 12 12 12 11 11 11 10 9 9 9 9 9 9 9 9 9 9 10 10 10 10 10 10 10 10 10 10 10 10 10 9 8 8 8 9 9 9 9 9 9 10
12 12 12 11 11 10 10 9 8 8 7 7 8 9 9 8 8 9 10 10 10 10 10 10 10 10 10 10 10 10 9 8 7 7 7 6 6 6 7 7 8 8 8
12 11 11 10 10 9 8 8 7 7 7 7 7 8 9 8 9 9 9 9 9 9 9 9 9 9 9 8 8 7 7 6 5 5 5 5 5 5 5 6 6 7 7
11 11 10 9 9 8 8 7 7 7 7 6 6 6 6 7 8 7 7 7 7 7 7 7 7 7 7 6 6 6 6 5 4 4 4 4 4 4 5 5 5 5 6
11 10 9 9 8 8 7 6 6 6 6 6 5 4 3 3 3 5 5 5 5 5 5 5 5 5 4 4 5 5 4 3 3 3 2 2 3 3 3 3 4 4 4
10 9 9 8 8 7 6 6 6 5 5 5 5 4 3 2 2 2 2 3 3 3 4 4 4 3 3 3 3 3 2 2 2 1 1 1 2 2 2 3 3 3 4
9 9 8 8 7 6 6 5 5 5 5 4 4 3 3 2 1 0 -0 0 1 2 2 2 2 2 1 1 1 1 1 1 -0 -0 -0 -0 0 1 1 1 2 2 2
9 8 8 7 6 6 5 5 4 4 4 3 3 2 1 1 0 -0 -1 -1 -1 -1 -0 -0 0 0 -0 -1 -0 -0 -1 -2 -2 -2 -2 -1 -1 -1 -0 -0 1 1 1
8 8 7 6 6 5 4 4 4 4 3 3 2 2 1 1 -0 -1 -2 -2 -2 -2 -2 -2 -2 -1 -1 -2 -2 -2 -2 -3 -3 -3 -3 -2 -2 -2 -2 -1 -1 -0 -0
8 7 6 6 5 4 4 3 3 3 3 2 2 1 1 0 -1 -2 -2 -3 -3 -3 -3 -3 -3 -3 -3 -3 -3 -4 -4 -4 -4 -4 -4 -3 -3 -3 -3 -2 -2 -1 -1
7 6 6 5 4 4 3 3 3 2 2 2 1 0 -1 -1 -2 -2 -3 -3 -4 -4 -4 -4 -4 -4 -4 -4 -5 -5 -5 -5 -5 -5 -4 -4 -4 -4 -3 -3 -2 -2 -2
6 6 5 4 4 3 3 2 2 1 1 1 -0 -1 -2 -3 -3 -3 -4 -5 -5 -5 -5 -4 -5 -5 -5 -5 -5 -5 -6 -6 -6 -6 -5 -5 -5 -4 -3 -3 -3 -4 -3
5 5 4 4 3 2 2 1 1 0 0 -0 -1 -2 -3 -4 -5 -5 -5 -6 -6 -5 -5 -5 -5 -5 -6 -6 -6 -6 -7 -7 -7 -6 -6 -5 -5 -4 -4 -4 -4 -4 -4
4 4 3 3 2 1 1 1 -0 -0 -1 -2 -3 -4 -5 -5 -5 -6 -6 -6 -6 -6 -6 -6 -6 -6 -6 -6 -7 -7 -7 -7 -8 -7 -7 -6 -5 -5 -5 -5 -5 -4 -4
3 3 2 2 1 1 0 -0 -1 -1 -2 -3 -4 -5 -5 -6 -6 -7 -7 -6 -7 -7 -7 -7 -7 -7 -6 -7 -7 -7 -8 -8 -8 -8 -8 -7 -7 -6 -6 -6 -5 -5 -6
3 2 2 1 1 0 -0 -1 -2 -2 -3 -4 -5 -5 -6 -7 -7 -7 -7 -7 -7 -7 -7 -7 -7 -7 -7 -7 -8 -8 -9 -9 -8 -9 -8 -8 -8 -7 -7 -7 -7 -7 -6
2 1 1 1 0 -1 -1 -2 -2 -4 -4 -5 -5 -6 -7 -7 -7 -7 -7 -7 -7 -7 -7 -7 -8 -7 -8 -8 -9 -9 -9 -9 -9 -9 -9 -9 -9 -9 -9 -8 -8 -8 -7
1 1 0 -0 -1 -1 -2 -2 -4 -5 -5 -6 -6 -7 -7 -7 -7 -8 -8 -7 -7 -7 -7 -7 -8 -8 -9 -9 -9 -9 -9 -9 -10 -9 -9 -9 -9 -9 -9 -9 -9 -8 -7
0 0 -0 -1 -2 -2 -3 -4 -5 -6 -6 -7 -7 -8 -8 -8 -8 -8 -8 -8 -8 -8 -8 -8 -9 -9 -9 -9 -9 -10 -10 -10 -10 -10 -10 -10 -10 -10 -9 -9 -9 -8 -8
-0 -1 -1 -2 -2 -3 -4 -5 -6 -7 -7 -8 -8 -8 -8 -8 -8 -8 -8 -8 -8 -8 -8 -9 -9 -9 -9 -10 -10 -10 -10 -10 -10 -10 -10 -10 -10 -10 -9 -9 -9 -8 -8
-1 -1 -2 -3 -3 -4 -5 -6 -8 -8 -8 -8 -8 -8 -8 -8 -8 -8 -8 -8 -9 -9 -9 -9 -10 -10 -10 -10 -10 -10 -10 -11 -11 -11 -10 -11 -11 -10 -10 -9 -8 -8 -8
-2 -3 -3 -3 -4 -5 -6 -7 -8 -8 -8 -8 -8 -8 -8 -8 -8 -8 -9 -9 -9 -9 -10 -10 -10 -10 -10 -10 -11 -11 -11 -11 -11 -11 -10 -10 -10 -10 -10 -9 -9 -9 -9
Wind_Speed
3 2 2 4 5 6 5 5 5 6 6 8 8 7 6 8 9 9 11 14 16 18 19 20 20 21 20 20 20 21 20 20 21 21 22 24 27 29 31 31 31 31 32
4 5 6 5 6 7 8 6 4 6 6 7 8 7 6 7 8 9 10 11 15 16 17 18 19 19 20 20 17 17 16 17 17 19 22 24 24 25 28 31 32 32 32
9 6 6 6 5 9 9 7 6 6 7 8 8 9 8 6 7 8 9 10 11 13 16 18 19 22 22 23 21 21 21 21 20 20 21 21 20 19 21 25 28 31 34
11 8 6 5 7 9 6 6 6 6 6 7 8 8 8 7 6 7 8 9 9 9 12 15 19 20 22 21 21 21 22 22 22 22 23 23 23 21 19 20 22 25 29
13 10 5 5 8 6 6 5 4 4 5 8 8 8 8 5 4 6 6 7 8 9 9 11 15 14 17 20 22 22 23 23 22 21 22 23 23 23 24 23 22 22 24
13 10 5 6 6 5 6 5 4 4 3 6 6 8 7 3 3 7 7 6 5 8 8 7 8 10 16 23 23 23 23 21 21 21 22 22 22 23 24 25 25 24 24
12 9 5 5 5 5 5 5 4 4 3 6 5 6 6 3 4 11 8 7 7 8 8 10 9 8 10 16 19 21 21 21 19 21 22 23 24 24 25 27 27 28 25
11 9 6 5 6 5 7 7 5 3 3 5 4 4 5 6 8 11 8 8 9 8 9 10 10 7 8 8 14 20 21 18 20 20 22 25 26 27 26 28 29 30 27
11 10 8 5 6 6 5 5 4 4 3 4 5 5 5 4 9 5 8 7 11 7 10 4 7 7 7 9 10 13 15 17 21 21 23 26 27 29 30 31 33 30 29
10 10 9 7 5 5 4 4 4 3 4 4 3 3 1 4 4 7 6 10 8 9 7 6 7 5 8 7 9 10 13 20 21 22 25 28 31 33 34 33 34 34 31
8 8 8 6 4 4 4 5 5 5 4 3 3 3 3 3 4 6 11 9 11 9 9 6 6 5 6 6 6 8 20 22 23 26 30 33 34 35 36 36 36 35 36
4 5 5 4 4 4 4 5 5 6 5 4 3 3 3 4 6 6 9 13 13 9 8 6 6 6 5 4 6 15 18 22 27 32 34 35 36 36 36 36 36 35 35
2 2 3 3 3 3 4 4 5 6 5 5 5 4 4 5 5 6 10 14 14 11 8 5 6 6 3 3 4 14 21 27 30 32 34 36 37 36 35 35 35 35 35
3 1 2 2 4 5 5 5 5 5 5 6 7 6 5 6 5 5 8 12 16 14 11 8 4 4 3 2 10 19 14 24 28 33 34 36 36 36 36 35 35 35 35
2 2 3 3 4 5 5 6 5 7 7 6 7 6 5 5 5 7 8 8 11 15 15 11 7 6 3 5 12 13 10 21 30 32 34 35 35 36 35 33 34 34 33
2 3 4 5 6 6 7 7 6 8 8 7 6 6 6 6 7 8 8 8 8 12 15 16 10 8 8 9 16 14 11 24 27 32 34 36 39 38 35 35 36 36 37
2 3 4 6 7 8 8 8 8 9 8 8 7 7 7 8 9 10 9 9 9 9 13 17 13 10 11 10 13 8 10 9 12 30 37 40 39 37 36 36 37 38 37
2 4 5 6 7 8 8 8 9 10 9 9 8 7 8 10 11 10 10 11 11 11 10 15 17 13 13 12 10 10 11 12 12 27 36 37 35 35 35 36 36 34 31
4 5 6 7 8 8 9 9 9 9 9 8 7 7 8 10 11 11 12 12 10 9 10 13 16 15 14 8 9 13 14 13 14 21 28 30 31 32 32 32 31 31 32
5 6 7 7 8 8 9 9 8 9 9 8 7 7 8 9 12 13 13 11 11 13 13 13 13 15 12 9 11 14 15 13 14 13 17 20 25 28 30 33 34 32 31
5 6 7 8 8 8 10 13 11 9 9 8 8 8 9 14 20 19 16 14 14 14 13 13 15 13 10 13 13 12 15 15 12 11 11 11 12 12 15 23 26 29 30
6 6 7 8 9 9 18 22 19 12 9 9 9 9 11 14 18 24 27 28 26 22 18 15 13 13 14 14 14 14 15 13 16 9 9 13 11 12 12 12 25 33 34
6 7 7 8 9 10 19 22 24 14 10 10 10 11 12 13 17 14 22 27 25 27 23 18 14 16 15 15 16 16 14 15 15 12 12 15 11 11 12 15 31 35 35
5 6 7 8 8 11 18 22 24 11 9 9 11 11 11 12 13 20 18 16 14 13 16 14 13 15 15 15 15 16 16 15 13 11 11 14 13 12 14 14 29 35 34
5 5 6 8 8 9 16 21 19 8 9 10 9 9 12 14 23 31 21 15 13 13 18 22 22 24 28 28 23 14 12 13 14 13 12 12 15 14 14 14 18 28 30
6 7 7 8 9 9 15 21 20 9 9 10 10 10 18 23 28 29 19 15 14 17 14 13 16 19 18 19 23 15 12 13 14 12 12 10 13 12 10 9 9 10 15
Wind_Direction
116 94 49 44 33 38 49 41 29 18 8 357 352 347 335 332 330 326 317 318 319 323 324 325 325 319 305 294 293 295 294 292 290 286 283 277 268 263 259 255 254 254 251
100 83 65 48 38 44 50 42 32 20 7 356 349 340 326 328 330 329 331 339 340 343 351 357 358 359 3 352 334 325 318 309 306 309 311 303 290 280 273 266 262 258 255
85 79 70 53 32 40 41 36 23 18 13 360 344 332 330 330 331 337 350 352 349 352 359 6 12 9 12 4 357 351 352 358 351 344 337 330 317 300 292 285 277 269 263
87 81 68 51 42 41 34 29 20 10 5 353 333 322 323 331 338 349 351 349 347 354 352 4 4 4 4 3 0 354 347 343 337 339 339 337 335 327 314 303 294 284 275
82 77 67 51 49 41 32 21 12 12 359 344 326 314 312 327 355 360 346 339 344 356 348 353 352 354 1 1 353 351 346 338 333 337 336 329 329 330 327 320 314 306 297
80 77 63 52 49 47 30 18 1 344 352 333 319 308 302 311 22 5 348 337 344 351 343 340 350 347 360 358 358 351 347 344 344 343 338 334 332 329 325 320 316 311 308
78 73 59 47 43 50 36 23 357 343 333 340 329 314 315 321 16 356 351 345 353 347 351 355 348 344 354 358 353 348 347 340 338 334 328 325 324 321 321 316 312 306 311
75 71 66 56 45 39 29 21 19 348 330 360 349 336 338 332 348 336 335 344 347 350 347 342 329 336 352 351 342 349 347 349 345 332 327 322 319 316 315 312 311 307 306
73 69 66 61 50 45 29 10 8 29 346 337 14 43 353 314 319 316 324 334 337 336 326 312 311 320 344 339 340 346 341 348 339 336 331 325 319 314 309 305 299 297 298
73 69 65 60 52 42 28 2 8 9 12 0 358 35 263 270 302 313 318 320 319 318 300 295 301 300 326 320 322 327 335 339 335 331 323 317 313 308 303 301 297 296 296
69 67 65 60 51 37 19 9 7 9 18 5 350 326 321 277 250 278 301 309 312 307 297 287 289 292 297 293 303 317 333 336 329 322 315 311 308 304 301 297 295 294 291
63 55 60 55 41 21 6 358 357 2 3 357 337 320 303 300 307 298 300 305 303 296 287 287 285 285 269 287 321 336 333 322 319 317 312 308 307 304 301 296 293 289 290
80 41 51 37 21 3 358 354 352 351 348 341 320 302 280 271 282 292 305 308 305 304 294 273 255 256 258 303 343 326 320 316 310 306 305 305 303 300 298 295 292 289 286
153 128 66 30 11 4 355 350 341 332 329 320 310 304 298 295 291 290 301 305 306 304 299 293 265 254 251 277 313 306 301 295 296 298 298 301 300 298 292 291 289 287 287
117 75 39 9 357 353 343 340 333 322 317 310 307 304 305 295 295 296 294 289 295 305 305 303 301 299 270 277 290 293 283 287 294 295 296 297 297 293 289 289 289 287 287
70 39 4 352 343 337 335 335 324 314 311 305 307 312 302 296 307 306 299 292 285 289 295 302 306 302 297 296 293 295 295 296 292 292 293 295 293 287 287 289 291 291 289
63 12 345 341 336 333 328 325 315 305 299 297 298 303 301 301 309 306 299 295 289 285 288 297 303 307 300 293 292 296 295 283 284 287 291 291 288 287 287 290 291 290 287
23 352 340 334 330 324 319 313 307 307 302 299 299 303 297 307 309 304 300 295 290 285 285 294 301 302 295 293 297 295 293 291 289 288 292 292 292 291 291 291 286 284 287
359 344 339 335 328 321 315 308 300 295 294 292 290 286 289 307 308 300 294 292 294 296 295 292 293 298 296 305 304 298 298 298 296 295 297 297 296 296 294 294 292 294 295
352 344 342 334 326 319 310 304 300 299 298 288 277 277 284 293 296 297 298 305 311 304 299 293 295 301 301 311 305 306 306 303 297 297 296 292 294 296 296 299 296 294 290
358 351 347 336 329 327 326 329 325 315 301 291 283 276 276 294 308 307 309 312 307 302 299 300 299 296 309 310 307 305 300 298 300 309 297 289 288 285 286 287 284 284 281
359 352 344 332 326 331 336 339 336 327 318 302 290 284 286 294 300 309 310 306 304 305 304 304 309 309 305 303 299 296 299 311 312 305 293 295 290 284 281 275 278 282 285
349 339 333 327 318 322 337 341 340 340 329 319 308 301 304 309 306 297 295 298 301 304 310 310 305 297 297 295 298 303 300 295 294 298 296 291 287 281 279 275 284 284 283
339 326 316 313 311 323 338 343 341 343 324 311 304 299 294 293 294 301 304 310 312 308 299 294 291 294 296 300 301 301 298 293 288 289 286 285 289 282 282 276 281 280 281
322 310 304 307 312 318 334 338 335 326 316 308 301 296 301 305 308 315 325 324 317 308 306 307 308 309 309 308 308 306 301 303 298 295 293 287 288 285 282 276 271 277 280
306 307 310 313 317 317 323 332 331 325 311 306 303 302 308 314 321 330 333 331 320 312 316 319 315 310 306 303 305 305 297 293 294 295 293 290 288 289 288 272 272 274 279
Height
1504 1505 1505 1504 1503 1502 1501 1500 1498 1496 1494 1492 1489 1487 1485 1482 1479 1477 1475 1473 1472 1470 1469 1468 1466 1464 1462 1461 1460 1459 1457 1456 1455 1455 1453 1452 1451 1450 1450 1450 1451 1452 1452
1504 1504 1504 1503 1503 1501 1499 1497 1495 1493 1490 1488 1486 1483 1480 1478 1474 1472 1470 1469 1468 1467 1465 1463 1462 1460 1457 1455 1455 1454 1452 1451 1450 1448 1446 1445 1443 1443 1443 1443 1443 1444 1444
1503 1504 1503 1503 1501 1499 1497 1495 1492 1490 1487 1484 1481 1478 1476 1473 1470 1468 1467 1466 1465 1464 1462 1460 1459 1456 1454 1452 1450 1449 1447 1445 1444 1442 1440 1439 1437 1437 1436 1435 1435 1436 1436
1503 1503 1503 1502 1500 1498 1495 1492 1488 1485 1482 1479 1476 1474 1472 1469 1467 1466 1465 1463 1461 1460 1459 1457 1455 1452 1450 1448 1446 1444 1441 1440 1439 1437 1435 1434 1433 1431 1430 1429 1428 1427 1426
1502 1502 1503 1501 1498 1495 1492 1489 1485 1482 1478 1475 1473 1470 1468 1466 1464 1463 1462 1460 1458 1456 1454 1452 1450 1448 1445 1443 1441 1437 1434 1433 1432 1431 1429 1428 1427 1425 1423 1422 1421 1419 1418
1502 1502 1501 1499 1496 1493 1489 1486 1483 1480 1476 1472 1469 1466 1465 1463 1461 1459 1459 1456 1455 1452 1450 1448 1445 1443 1440 1437 1434 1431 1428 1427 1425 1422 1421 1421 1420 1418 1416 1415 1413 1412 1411
1501 1500 1499 1497 1494 1490 1486 1483 1480 1478 1474 1469 1464 1461 1460 1459 1456 1455 1454 1452 1450 1448 1446 1443 1440 1437 1434 1431 1428 1425 1423 1420 1418 1415 1414 1414 1412 1411 1409 1408 1406 1405 1403
1499 1498 1497 1495 1492 1489 1486 1482 1478 1475 1472 1468 1463 1459 1456 1455 1454 1453 1449 1447 1444 1442 1439 1437 1434 1430 1427 1423 1421 1419 1416 1413 1409 1408 1408 1407 1405 1404 1402 1400 1398 1397 1394
1497 1496 1495 1493 1490 1488 1484 1481 1477 1473 1470 1468 1465 1463 1461 1456 1448 1445 1443 1441 1439 1435 1433 1430 1427 1424 1421 1417 1414 1412 1409 1405 1403 1402 1400 1399 1397 1396 1395 1393 1392 1389 1386
1495 1494 1493 1491 1488 1485 1482 1479 1476 1472 1469 1466 1464 1463 1462 1458 1452 1441 1436 1435 1432 1429 1426 1423 1420 1418 1414 1411 1408 1405 1402 1399 1397 1396 1394 1392 1390 1388 1386 1383 1381 1379 1377
1493 1492 1491 1488 1486 1483 1481 1478 1475 1471 1467 1464 1462 1459 1456 1453 1449 1445 1433 1428 1424 1422 1419 1416 1413 1410 1407 1404 1401 1399 1396 1393 1391 1389 1387 1385 1381 1379 1376 1373 1370 1368 1366
1492 1490 1488 1486 1484 1481 1478 1475 1472 1469 1465 1462 1459 1456 1453 1449 1444 1439 1430 1422 1417 1413 1411 1408 1406 1403 1400 1398 1395 1392 1389 1385 1382 1379 1376 1372 1369 1367 1364 1361 1359 1357 1354
1490 1488 1486 1484 1481 1477 1474 1472 1469 1465 1462 1459 1455 1451 1448 1444 1440 1435 1427 1417 1409 1405 1402 1400 1399 1397 1394 1391 1388 1386 1383 1378 1373 1369 1366 1362 1359 1355 1352 1349 1346 1344 1341
1487 1485 1483 1481 1478 1474 1471 1468 1465 1462 1458 1455 1451 1446 1442 1439 1435 1430 1425 1416 1403 1395 1393 1392 1391 1390 1387 1384 1382 1379 1374 1370 1366 1362 1357 1353 1348 1344 1341 1338 1335 1332 1329
1485 1483 1480 1478 1475 1471 1468 1464 1461 1457 1454 1450 1445 1441 1437 1433 1428 1423 1418 1413 1407 1394 1382 1383 1384 1381 1379 1375 1372 1369 1364 1360 1356 1352 1348 1343 1338 1333 1330 1326 1323 1320 1317
1482 1480 1477 1474 1471 1467 1463 1460 1456 1453 1449 1445 1440 1436 1431 1426 1421 1415 1410 1406 1402 1396 1383 1376 1375 1374 1370 1366 1362 1359 1354 1350 1346 1342 1337 1333 1327 1322 1318 1314 1311 1306 1303
1478 1476 1474 1470 1467 1463 1460 1456 1451 1447 1443 1439 1435 1430 1425 1420 1414 1408 1403 1399 1396 1392 1384 1373 1369 1365 1361 1357 1351 1346 1342 1338 1334 1331 1325 1319 1313 1309 1304 1300 1297 1294 1291
1475 1473 1470 1466 1463 1459 1455 1451 1446 1442 1438 1433 1428 1424 1419 1414 1409 1403 1398 1394 1390 1386 1381 1371 1362 1358 1353 1348 1342 1337 1331 1327 1322 1316 1310 1305 1300 1296 1292 1288 1284 1281 1278
1471 1468 1466 1462 1459 1454 1450 1446 1441 1437 1432 1427 1423 1418 1414 1408 1402 1398 1394 1389 1384 1379 1374 1367 1357 1351 1345 1340 1333 1327 1321 1315 1309 1304 1299 1294 1289 1285 1280 1276 1272 1269 1266
1467 1465 1462 1458 1454 1450 1445 1440 1436 1431 1427 1422 1418 1413 1408 1403 1398 1393 1389 1384 1379 1373 1366 1359 1351 1344 1338 1333 1327 1319 1310 1305 1299 1293 1288 1284 1280 1275 1270 1266 1262 1258 1255
1464 1461 1458 1454 1450 1445 1441 1436 1431 1426 1421 1416 1412 1408 1404 1399 1394 1390 1385 1379 1374 1366 1359 1353 1345 1336 1331 1325 1319 1312 1304 1296 1290 1287 1280 1272 1269 1262 1257 1253 1249 1246 1243
1460 1458 1453 1449 1445 1440 1436 1431 1426 1420 1415 1410 1406 1402 1397 1392 1388 1383 1379 1373 1368 1361 1354 1347 1339 1332 1325 1319 1312 1305 1298 1291 1282 1278 1273 1264 1261 1252 1247 1242 1238 1235 1231
1457 1453 1449 1444 1440 1435 1430 1425 1419 1414 1409 1405 1400 1395 1390 1386 1381 1375 1369 1364 1359 1354 1348 1342 1334 1327 1320 1314 1307 1299 1292 1285 1277 1269 1265 1255 1251 1244 1238 1232 1228 1224 1219
1453 1449 1445 1440 1435 1430 1424 1418 1413 1408 1403 1399 1394 1390 1385 1379 1373 1368 1362 1356 1349 1344 1339 1333 1328 1321 1315 1309 1302 1294 1286 1278 1270 1263 1258 1249 1242 1235 1228 1222 1216 1211 1208
1449 1445 1440 1435 1430 1424 1419 1414 1408 1403 1399 1394 1390 1385 1380 1375 1368 1363 1356 1348 1341 1335 1330 1325 1320 1314 1308 1301 1295 1287 1279 1272 1263 1255 1250 1243 1232 1225 1218 1210 1204 1201 1197
1444 1440 1436 1431 1425 1420 1414 1410 1406 1401 1395 1390 1384 1380 1375 1370 1364 1357 1350 1343 1334 1328 1322 1315 1309 1304 1298 1292 1286 1281 1273 1266 1257 1248 1242 1236 1227 1220 1209 1202 1197 1192 1186